TimeCST,TemperatureF,Dew PointF,Humidity,Sea Level PressureIn,VisibilityMPH,Wind Direction,Wind SpeedMPH,Gust SpeedMPH,PrecipitationIn,Events,Conditions,WindDirDegrees,DateUTC
12:17 AM,3.2,-0.4,85,29.97,10.0,Calm,Calm,-,N/A,,Scattered Clouds,0,2012-12-29 06:17:00
12:36 AM,1.4,-0.4,92,29.97,10.0,Calm,Calm,-,N/A,,Mostly Cloudy,0,2012-12-29 06:36:00
12:57 AM,1.4,-0.4,92,29.96,10.0,Calm,Calm,-,N/A,,Overcast,0,2012-12-29 06:57:00
1:17 AM,3.2,-0.4,85,29.96,10.0,Calm,Calm,-,N/A,,Overcast,0,2012-12-29 07:17:00
1:36 AM,3.2,1.4,92,29.95,10.0,Calm,Calm,-,N/A,,Overcast,0,2012-12-29 07:36:00
1:57 AM,5.0,3.2,92,29.95,10.0,Calm,Calm,-,N/A,,Overcast,0,2012-12-29 07:57:00
2:16 AM,6.8,3.2,85,29.95,2.5,Calm,Calm,-,N/A,Snow,Light Snow,0,2012-12-29 08:16:00
2:37 AM,6.8,3.2,85,29.95,1.0,Calm,Calm,-,N/A,Snow,Snow,0,2012-12-29 08:37:00
2:56 AM,6.8,5.0,92,29.95,1.2,Calm,Calm,-,N/A,Snow,Light Snow,0,2012-12-29 08:56:00
3:17 AM,6.8,3.2,85,29.95,4.0,Calm,Calm,-,N/A,Snow,Light Snow,0,2012-12-29 09:17:00
3:37 AM,6.8,3.2,85,29.96,5.0,Calm,Calm,-,N/A,Snow,Light Snow,0,2012-12-29 09:37:00
3:56 AM,5.0,3.2,92,29.95,1.8,Calm,Calm,-,N/A,Snow,Light Snow,0,2012-12-29 09:56:00
4:16 AM,5.0,1.4,85,29.95,3.0,Calm,Calm,-,N/A,Snow,Light Snow,0,2012-12-29 10:16:00
4:37 AM,3.2,1.4,92,29.95,2.5,Calm,Calm,-,N/A,Snow,Light Snow,0,2012-12-29 10:37:00
4:56 AM,3.2,1.4,92,29.95,4.0,Calm,Calm,-,N/A,Snow,Light Snow,0,2012-12-29 10:56:00
5:16 AM,3.2,-0.4,85,29.95,10.0,Calm,Calm,-,N/A,Snow,Light Snow,0,2012-12-29 11:16:00
5:37 AM,1.4,-0.4,92,29.95,10.0,Calm,Calm,-,N/A,Snow,Light Snow,0,2012-12-29 11:37:00
5:56 AM,1.4,-2.2,85,29.94,10.0,Calm,Calm,-,N/A,,Mostly Cloudy,0,2012-12-29 11:56:00
6:16 AM,1.4,-2.2,85,29.94,10.0,Calm,Calm,-,N/A,,Overcast,0,2012-12-29 12:16:00
6:37 AM,1.4,-0.4,92,29.93,10.0,Calm,Calm,-,N/A,,Overcast,0,2012-12-29 12:37:00
6:56 AM,3.2,-0.4,85,29.93,10.0,Calm,Calm,-,N/A,Snow,Light Snow,0,2012-12-29 12:56:00
7:16 AM,1.4,-0.4,92,29.94,10.0,Calm,Calm,-,N/A,Snow,Light Snow,0,2012-12-29 13:16:00
7:37 AM,3.2,-0.4,85,29.94,5.0,Calm,Calm,-,N/A,Snow,Light Snow,0,2012-12-29 13:37:00
7:56 AM,3.2,1.4,92,29.94,3.0,Calm,Calm,-,N/A,Snow,Light Snow,0,2012-12-29 13:56:00
8:17 AM,5.0,1.4,85,29.94,1.8,Calm,Calm,-,N/A,Snow,Light Snow,0,2012-12-29 14:17:00
8:37 AM,6.8,3.2,85,29.94,1.0,Calm,Calm,-,N/A,Snow,Light Snow,0,2012-12-29 14:37:00
8:56 AM,6.8,5.0,92,29.95,1.0,Calm,Calm,-,N/A,Snow,Light Snow,0,2012-12-29 14:56:00
9:17 AM,8.6,5.0,85,29.95,0.8,Calm,Calm,-,N/A,Snow,Light Snow,0,2012-12-29 15:17:00
9:37 AM,10.4,8.6,92,29.95,1.0,Calm,Calm,-,N/A,Snow,Light Snow,0,2012-12-29 15:37:00
9:56 AM,12.2,10.4,92,29.95,1.5,Calm,Calm,-,N/A,Snow,Light Snow,0,2012-12-29 15:56:00
10:17 AM,12.2,10.4,92,29.95,1.5,Calm,Calm,-,N/A,Snow,Light Snow,0,2012-12-29 16:17:00
10:37 AM,15.8,12.2,86,29.96,0.8,WSW,3.5,-,N/A,Snow,Light Snow,240,2012-12-29 16:37:00
10:56 AM,15.8,12.2,86,29.95,3.0,West,3.5,-,N/A,Snow,Light Snow,270,2012-12-29 16:56:00
11:17 AM,15.8,12.2,86,29.95,4.0,West,5.8,-,N/A,Snow,Light Snow,280,2012-12-29 17:17:00
11:37 AM,15.8,12.2,86,29.94,4.0,West,6.9,-,N/A,Snow,Light Snow,260,2012-12-29 17:37:00
11:56 AM,15.8,12.2,86,29.94,2.5,West,6.9,-,N/A,Snow,Light Snow,260,2012-12-29 17:56:00
12:17 PM,15.8,10.4,79,29.93,3.0,West,6.9,-,N/A,Snow,Light Snow,270,2012-12-29 18:17:00
12:37 PM,15.8,10.4,79,29.94,3.0,West,4.6,-,N/A,Snow,Light Snow,270,2012-12-29 18:37:00
12:56 PM,15.8,10.4,79,29.93,1.5,West,4.6,-,N/A,Snow,Light Snow,280,2012-12-29 18:56:00
1:17 PM,15.8,12.2,86,29.93,1.8,West,5.8,-,N/A,Snow,Light Snow,270,2012-12-29 19:17:00
1:37 PM,15.8,10.4,79,29.92,2.5,West,6.9,-,N/A,Snow,Light Snow,270,2012-12-29 19:37:00
1:56 PM,15.8,12.2,86,29.92,2.5,West,4.6,-,N/A,Snow,Light Snow,270,2012-12-29 19:56:00
2:17 PM,15.8,12.2,86,29.92,2.5,West,5.8,-,N/A,Snow,Light Snow,270,2012-12-29 20:17:00
2:37 PM,15.8,10.4,79,29.93,1.5,West,5.8,-,N/A,Snow,Light Snow,280,2012-12-29 20:37:00
2:56 PM,15.8,10.4,79,29.93,5.0,West,4.6,-,N/A,Snow,Light Snow,270,2012-12-29 20:56:00
3:17 PM,15.8,10.4,79,29.94,4.0,West,6.9,-,N/A,Snow,Light Snow,270,2012-12-29 21:17:00
3:36 PM,14.0,10.4,86,29.95,1.8,WNW,4.6,-,N/A,Snow,Light Snow,300,2012-12-29 21:36:00
3:56 PM,14.0,10.4,86,29.95,4.0,WNW,6.9,-,N/A,Snow,Light Snow,290,2012-12-29 21:56:00
4:16 PM,14.0,10.4,86,29.95,5.0,WNW,4.6,-,N/A,Snow,Light Snow,290,2012-12-29 22:16:00
4:36 PM,12.2,10.4,92,29.96,7.0,WNW,5.8,-,N/A,Snow,Light Snow,290,2012-12-29 22:36:00
5:16 PM,12.2,8.6,85,29.97,10.0,WNW,5.8,-,N/A,Snow,Light Snow,290,2012-12-29 23:16:00
5:36 PM,12.2,8.6,85,29.98,7.0,West,6.9,-,N/A,Snow,Light Snow,280,2012-12-29 23:36:00
5:57 PM,12.2,8.6,85,29.99,10.0,WNW,6.9,-,N/A,Snow,Light Snow,290,2012-12-29 23:57:00
6:16 PM,10.4,8.6,92,29.98,10.0,WNW,5.8,-,N/A,,Overcast,290,2012-12-30 00:16:00
6:36 PM,8.6,6.8,92,29.99,10.0,West,3.5,-,N/A,,Overcast,280,2012-12-30 00:36:00
6:57 PM,5.0,1.4,85,30.00,10.0,West,4.6,-,N/A,,Mostly Cloudy,270,2012-12-30 00:57:00
7:16 PM,5.0,3.2,92,30.00,10.0,West,3.5,-,N/A,Snow,Light Snow,260,2012-12-30 01:16:00
7:36 PM,3.2,1.4,92,30.00,5.0,Calm,Calm,-,N/A,Snow,Light Snow,0,2012-12-30 01:36:00
7:57 PM,3.2,1.4,92,30.00,7.0,Calm,Calm,-,N/A,Snow,Light Snow,0,2012-12-30 01:57:00
8:16 PM,3.2,1.4,92,30.01,10.0,Calm,Calm,-,N/A,Snow,Light Snow,0,2012-12-30 02:16:00
8:57 PM,1.4,-0.4,92,30.01,7.0,Calm,Calm,-,N/A,Snow,Light Snow,0,2012-12-30 02:57:00
9:16 PM,-0.4,-2.2,92,30.01,10.0,Calm,Calm,-,N/A,,Clear,0,2012-12-30 03:16:00
9:36 PM,-0.4,-2.2,92,30.01,10.0,WSW,3.5,-,N/A,,Clear,250,2012-12-30 03:36:00
9:57 PM,-0.4,-2.2,92,30.02,10.0,Calm,Calm,-,N/A,,Clear,0,2012-12-30 03:57:00
10:16 PM,-0.4,-4.0,85,30.02,10.0,Calm,Calm,-,N/A,,Clear,0,2012-12-30 04:16:00
10:37 PM,-2.2,-4.0,92,30.02,10.0,Calm,Calm,-,N/A,,Clear,0,2012-12-30 04:37:00
10:56 PM,-5.8,-9.4,84,30.02,10.0,Calm,Calm,-,N/A,,Clear,0,2012-12-30 04:56:00
11:17 PM,-5.8,-9.4,84,30.03,10.0,Calm,Calm,-,N/A,,Clear,0,2012-12-30 05:17:00
11:36 PM,-7.6,-11.2,84,30.03,10.0,Calm,Calm,-,N/A,,Clear,0,2012-12-30 05:36:00
11:57 PM,-7.6,-11.2,84,30.03,10.0,Calm,Calm,-,N/A,,Clear,0,2012-12-30 05:57:00